TimeEST,TemperatureF,Dew PointF,Humidity,Sea Level PressureIn,VisibilityMPH,Wind Direction,Wind SpeedMPH,Gust SpeedMPH,PrecipitationIn,Events,Conditions,WindDirDegrees,DateUTC
12:15 AM,37.6,33.6,86,30.25,10.0,Calm,Calm,-,N/A,,Mostly Cloudy,0,2013-01-06 05:15:00
12:35 AM,37.4,33.6,86,30.24,10.0,Calm,Calm,-,N/A,,Mostly Cloudy,0,2013-01-06 05:35:00
12:55 AM,37.6,33.3,84,30.22,10.0,Calm,Calm,-,N/A,,Overcast,0,2013-01-06 05:55:00
1:15 AM,38.3,33.3,82,30.22,10.0,Calm,Calm,-,N/A,,Overcast,0,2013-01-06 06:15:00
1:35 AM,38.7,33.8,83,30.22,10.0,Calm,Calm,-,N/A,,Overcast,0,2013-01-06 06:35:00
1:55 AM,39.0,34.7,84,30.22,10.0,Calm,Calm,-,N/A,Rain,Light Rain,0,2013-01-06 06:55:00
2:15 AM,38.5,35.6,89,30.23,10.0,Calm,Calm,-,N/A,Rain,Light Rain,0,2013-01-06 07:15:00
2:35 AM,38.7,36.0,90,30.24,10.0,Calm,Calm,-,N/A,,Light Drizzle,0,2013-01-06 07:35:00
2:55 AM,38.8,36.3,91,30.24,10.0,Calm,Calm,-,N/A,Rain,Light Rain,0,2013-01-06 07:55:00
3:15 AM,39.4,37.4,93,30.24,10.0,Calm,Calm,-,N/A,Rain,Light Rain,0,2013-01-06 08:15:00
3:35 AM,39.2,37.2,93,30.23,10.0,Calm,Calm,-,N/A,Rain,Rain,0,2013-01-06 08:35:00
3:55 AM,39.2,37.4,93,30.22,10.0,Calm,Calm,-,N/A,,Overcast,0,2013-01-06 08:55:00
4:15 AM,39.2,37.4,93,30.20,10.0,Calm,Calm,-,N/A,Rain,Light Rain,0,2013-01-06 09:15:00
4:35 AM,39.4,38.1,95,30.19,10.0,Calm,Calm,-,N/A,,Overcast,0,2013-01-06 09:35:00
5:15 AM,39.7,37.9,93,30.19,10.0,Calm,Calm,-,N/A,,Overcast,0,2013-01-06 10:15:00
5:35 AM,39.7,38.3,95,30.19,10.0,Calm,Calm,-,N/A,,Light Drizzle,0,2013-01-06 10:35:00
5:55 AM,39.6,38.3,95,30.17,10.0,Calm,Calm,-,N/A,,Overcast,0,2013-01-06 10:55:00
6:15 AM,39.6,38.3,95,30.17,10.0,Calm,Calm,-,N/A,,Overcast,0,2013-01-06 11:15:00
6:55 AM,40.1,38.5,94,30.18,10.0,NNE,3.5,-,N/A,,Overcast,20,2013-01-06 11:55:00
7:15 AM,39.9,38.3,94,30.19,10.0,Calm,Calm,-,N/A,,Overcast,0,2013-01-06 12:15:00
7:35 AM,39.7,38.3,95,30.19,10.0,Calm,Calm,-,N/A,,Overcast,0,2013-01-06 12:35:00
7:55 AM,40.1,38.7,95,30.19,10.0,Calm,Calm,-,N/A,,Overcast,0,2013-01-06 12:55:00
8:15 AM,40.3,38.5,93,30.19,10.0,Calm,Calm,-,N/A,,Overcast,0,2013-01-06 13:15:00
8:35 AM,40.6,38.7,93,30.20,10.0,Calm,Calm,-,N/A,,Overcast,0,2013-01-06 13:35:00
9:15 AM,41.9,39.0,90,30.21,10.0,Calm,Calm,-,N/A,,Overcast,0,2013-01-06 14:15:00
9:35 AM,42.4,38.3,85,30.20,10.0,Calm,Calm,-,N/A,,Overcast,0,2013-01-06 14:35:00
9:55 AM,43.2,38.8,85,30.20,10.0,Calm,Calm,-,N/A,,Overcast,0,2013-01-06 14:55:00
10:15 AM,44.4,39.6,83,30.20,10.0,Calm,Calm,-,N/A,,Overcast,0,2013-01-06 15:15:00
10:35 AM,45.1,38.5,77,30.20,10.0,Calm,Calm,-,N/A,,Light Drizzle,0,2013-01-06 15:35:00
10:55 AM,46.2,37.8,72,30.19,10.0,Calm,Calm,-,N/A,,Overcast,0,2013-01-06 15:55:00
11:15 AM,46.8,37.4,70,30.19,10.0,Calm,Calm,-,N/A,,Overcast,0,2013-01-06 16:15:00
11:35 AM,46.8,36.5,67,30.17,10.0,Calm,Calm,-,N/A,,Overcast,0,2013-01-06 16:35:00
12:15 PM,47.7,36.0,64,30.14,10.0,SW,3.5,-,N/A,,Light Drizzle,230,2013-01-06 17:15:00
12:35 PM,47.8,35.4,62,30.13,10.0,Calm,Calm,-,N/A,,Overcast,0,2013-01-06 17:35:00
12:55 PM,48.6,34.9,59,30.11,10.0,South,3.5,-,N/A,,Overcast,180,2013-01-06 17:55:00
1:15 PM,48.7,34.7,58,30.10,10.0,SSW,3.5,-,N/A,,Overcast,200,2013-01-06 18:15:00
1:35 PM,48.9,35.4,60,30.11,10.0,SW,3.5,-,N/A,,Overcast,230,2013-01-06 18:35:00
1:55 PM,49.5,36.0,60,30.09,10.0,SW,3.5,-,N/A,,Overcast,230,2013-01-06 18:55:00
2:15 PM,49.6,36.7,61,30.08,10.0,South,5.8,-,N/A,,Overcast,180,2013-01-06 19:15:00
2:35 PM,50.0,36.5,60,30.08,10.0,Calm,Calm,-,N/A,,Overcast,0,2013-01-06 19:35:00
2:55 PM,50.0,36.9,61,30.08,10.0,South,3.5,-,N/A,,Overcast,190,2013-01-06 19:55:00
3:15 PM,50.4,37.9,62,30.08,10.0,South,3.5,-,N/A,,Scattered Clouds,180,2013-01-06 20:15:00
3:35 PM,50.0,38.7,65,30.07,10.0,South,3.5,-,N/A,,Scattered Clouds,170,2013-01-06 20:35:00
3:55 PM,49.5,38.7,66,30.07,10.0,South,3.5,-,N/A,,Overcast,170,2013-01-06 20:55:00
4:15 PM,49.6,39.2,67,30.07,10.0,South,4.6,-,N/A,,Overcast,190,2013-01-06 21:15:00
4:35 PM,49.5,39.6,69,30.06,10.0,Calm,Calm,-,N/A,,Overcast,0,2013-01-06 21:35:00
4:55 PM,48.9,39.7,71,30.06,10.0,Calm,Calm,-,N/A,,Scattered Clouds,0,2013-01-06 21:55:00
5:15 PM,47.7,40.1,75,30.07,10.0,Calm,Calm,-,N/A,,Scattered Clouds,0,2013-01-06 22:15:00
5:55 PM,45.5,40.1,81,30.08,10.0,Calm,Calm,-,N/A,,Clear,0,2013-01-06 22:55:00
6:15 PM,45.0,40.5,84,30.08,10.0,Calm,Calm,-,N/A,,Clear,0,2013-01-06 23:15:00
6:35 PM,43.9,39.9,86,30.10,10.0,Calm,Calm,-,N/A,,Clear,0,2013-01-06 23:35:00
6:55 PM,42.3,39.2,89,30.10,10.0,Calm,Calm,-,N/A,,Clear,0,2013-01-06 23:55:00
7:15 PM,41.0,38.5,91,30.10,10.0,Calm,Calm,-,N/A,,Clear,0,2013-01-07 00:15:00
7:35 PM,40.1,38.1,93,30.10,10.0,Calm,Calm,-,N/A,,Clear,0,2013-01-07 00:35:00
7:55 PM,39.4,37.6,93,30.11,10.0,Calm,Calm,-,N/A,,Clear,0,2013-01-07 00:55:00
8:15 PM,38.1,36.3,93,30.11,4.0,Calm,Calm,-,N/A,,Clear,0,2013-01-07 01:15:00
8:35 PM,36.5,35.1,95,30.12,4.0,Calm,Calm,-,N/A,,Clear,0,2013-01-07 01:35:00
8:55 PM,36.5,35.1,95,30.13,10.0,Calm,Calm,-,N/A,,Clear,0,2013-01-07 01:55:00
9:15 PM,35.2,34.0,95,30.13,7.0,Calm,Calm,-,N/A,,Clear,0,2013-01-07 02:15:00
9:35 PM,34.3,33.1,95,30.14,5.0,Calm,Calm,-,N/A,,Clear,0,2013-01-07 02:35:00
9:55 PM,34.5,33.4,96,30.15,10.0,Calm,Calm,-,N/A,,Clear,0,2013-01-07 02:55:00
10:15 PM,32.5,31.8,97,30.15,7.0,Calm,Calm,-,N/A,,Clear,0,2013-01-07 03:15:00
10:35 PM,32.2,31.6,98,30.16,10.0,Calm,Calm,-,N/A,,Clear,0,2013-01-07 03:35:00
10:55 PM,31.1,30.0,96,30.17,10.0,Calm,Calm,-,N/A,,Clear,0,2013-01-07 03:55:00
11:15 PM,31.1,30.0,96,30.18,10.0,SSW,4.6,-,N/A,,Clear,210,2013-01-07 04:15:00
11:35 PM,31.3,30.2,96,30.18,10.0,Calm,Calm,-,N/A,,Clear,0,2013-01-07 04:35:00
11:55 PM,31.3,30.2,96,30.19,10.0,Calm,Calm,-,N/A,,Scattered Clouds,0,2013-01-07 04:55:00